When you browse on this site, cookies collect data to enhance your experience and personalize the content and advertising you see.
Visit our Privacy Policy to learn more. By continuing to use the site, you agree to this use of cookies and data.
  • In Schweiz
  • Länderverzeichnis
  • Für 7 Tage
  • Wassertemperatur
  • Wetterkarte
  • Widgets
  • user-avatar
    Anmelden

    Stündliche Wetter Rawda

    Heute, 14 Oktober, Montag

    Zeit Temperatur Niederschläge Wind Luftdruck Luftfeuchtigkeit
    00:00 +15°C° 0 mm 1 m/S 766 mmHg 87%
    01:00 +14°C° 0 mm 1 m/S 766 mmHg 87%
    02:00 +14°C° 0 mm 1 m/S 767 mmHg 88%
    03:00 +14°C° 0 mm 1 m/S 766 mmHg 87%
    04:00 +14°C° 0 mm 1 m/S 766 mmHg 87%
    05:00 +14°C° 0 mm 1 m/S 766 mmHg 87%
    06:00 +15°C° 0 mm 1 m/S 766 mmHg 85%
    07:00 +16°C° 0 mm 1 m/S 767 mmHg 82%
    08:00 +18°C° 0 mm 1 m/S 767 mmHg 79%
    09:00 +19°C° 0 mm 1 m/S 767 mmHg 72%
    10:00 +21°C° 0 mm 1 m/S 767 mmHg 64%
    11:00 +23°C° 0 mm 2 m/S 766 mmHg 57%
    12:00 +24°C° 0 mm 2 m/S 766 mmHg 56%
    13:00 +24°C° 0 mm 2 m/S 766 mmHg 54%
    14:00 +25°C° 0 mm 2 m/S 765 mmHg 53%
    15:00 +23°C° 0 mm 2 m/S 765 mmHg 62%
    16:00 +21°C° 0 mm 2 m/S 765 mmHg 70%
    17:00 +19°C° 0 mm 2 m/S 764 mmHg 79%
    18:00 +18°C° 0 mm 2 m/S 765 mmHg 84%
    19:00 +17°C° 0 mm 2 m/S 765 mmHg 89%
    20:00 +16°C° 0 mm 2 m/S 765 mmHg 93%
    21:00 +16°C° 0 mm 1 m/S 765 mmHg 94%
    22:00 +15°C° 0 mm 1 m/S 765 mmHg 94%
    23:00 +15°C° 0 mm 1 m/S 765 mmHg 94%

    Morgen, 15 Oktober, Dienstag

    Zeit Temperatur Niederschläge Wind Luftdruck Luftfeuchtigkeit
    00:00 +14°C° 0 mm 0 m/S 765 mmHg 94%
    01:00 +14°C° 0 mm 0 m/S 764 mmHg 93%
    02:00 +13°C° 0 mm 0 m/S 764 mmHg 93%
    03:00 +13°C° 0 mm 0 m/S 764 mmHg 93%
    04:00 +13°C° 0 mm 0 m/S 764 mmHg 92%
    05:00 +13°C° 0 mm 0 m/S 763 mmHg 92%
    06:00 +14°C° 0 mm 0 m/S 764 mmHg 90%
    07:00 +15°C° 0 mm 0 m/S 764 mmHg 88%
    08:00 +16°C° 0 mm 1 m/S 764 mmHg 85%
    09:00 +19°C° 0 mm 1 m/S 764 mmHg 77%
    10:00 +21°C° 0 mm 1 m/S 764 mmHg 69%
    11:00 +23°C° 0 mm 2 m/S 764 mmHg 61%
    12:00 +23°C° 0 mm 2 m/S 763 mmHg 60%
    13:00 +24°C° 0 mm 2 m/S 763 mmHg 59%
    14:00 +25°C° 0 mm 3 m/S 763 mmHg 57%
    15:00 +22°C° 0 mm 3 m/S 762 mmHg 65%
    16:00 +21°C° 0 mm 3 m/S 762 mmHg 73%
    17:00 +19°C° 0 mm 3 m/S 762 mmHg 81%
    18:00 +18°C° 0 mm 2 m/S 762 mmHg 85%
    19:00 +17°C° 0 mm 2 m/S 762 mmHg 89%
    20:00 +16°C° 0 mm 2 m/S 763 mmHg 93%
    21:00 +16°C° 0 mm 2 m/S 763 mmHg 94%
    22:00 +16°C° 0 mm 1 m/S 763 mmHg 94%
    23:00 +15°C° 0 mm 1 m/S 762 mmHg 94%

    übermorgen, 16 Oktober, Mittwoch

    Zeit Temperatur Niederschläge Wind Luftdruck Luftfeuchtigkeit
    00:00 +15°C° 0 mm 1 m/S 762 mmHg 95%
    01:00 +15°C° 0 mm 1 m/S 762 mmHg 95%
    02:00 +15°C° 0 mm 1 m/S 762 mmHg 95%
    03:00 +15°C° 0 mm 1 m/S 762 mmHg 95%
    04:00 +15°C° 0 mm 1 m/S 762 mmHg 95%
    05:00 +15°C° 0 mm 1 m/S 762 mmHg 95%
    06:00 +15°C° 0 mm 1 m/S 762 mmHg 93%
    07:00 +16°C° 0 mm 1 m/S 763 mmHg 91%
    08:00 +18°C° 0 mm 1 m/S 763 mmHg 90%
    09:00 +20°C° 0 mm 1 m/S 763 mmHg 79%
    10:00 +20°C° 0 mm 2 m/S 763 mmHg 69%
    11:00 +23°C° 0 mm 2 m/S 763 mmHg 59%
    12:00 +24°C° 0 mm 2 m/S 762 mmHg 56%
    13:00 +24°C° 0 mm 2 m/S 762 mmHg 53%
    14:00 +25°C° 0 mm 3 m/S 762 mmHg 51%
    15:00 +24°C° 0 mm 3 m/S 762 mmHg 58%
    16:00 +21°C° 0 mm 3 m/S 762 mmHg 66%
    17:00 +20°C° 0 mm 3 m/S 762 mmHg 73%
    18:00 +19°C° 0 mm 3 m/S 762 mmHg 78%
    19:00 +17°C° 0 mm 2 m/S 762 mmHg 84%
    20:00 +16°C° 0 mm 2 m/S 762 mmHg 89%
    21:00 +16°C° 0 mm 2 m/S 762 mmHg 89%
    22:00 +16°C° 0 mm 2 m/S 763 mmHg 89%
    23:00 +15°C° 0 mm 1 m/S 763 mmHg 89%

    17 Oktober, Donnerstag

    Zeit Temperatur Niederschläge Wind Luftdruck Luftfeuchtigkeit
    00:00 +15°C° 0 mm 1 m/S 763 mmHg 89%
    01:00 +15°C° 0 mm 1 m/S 763 mmHg 89%
    02:00 +15°C° 0 mm 1 m/S 763 mmHg 89%
    03:00 +15°C° 0 mm 1 m/S 763 mmHg 89%
    04:00 +15°C° 0 mm 2 m/S 763 mmHg 88%
    05:00 +14°C° 0 mm 2 m/S 763 mmHg 88%
    06:00 +15°C° 0 mm 2 m/S 763 mmHg 84%
    07:00 +16°C° 0 mm 2 m/S 763 mmHg 81%
    08:00 +17°C° 0 mm 2 m/S 763 mmHg 77%
    09:00 +19°C° 0 mm 2 m/S 763 mmHg 68%
    10:00 +20°C° 0 mm 2 m/S 763 mmHg 60%
    11:00 +23°C° 0 mm 2 m/S 763 mmHg 51%
    12:00 +24°C° 0 mm 2 m/S 763 mmHg 50%
    13:00 +24°C° 0 mm 2 m/S 763 mmHg 48%
    14:00 +25°C° 0 mm 2 m/S 763 mmHg 47%
    15:00 +23°C° 0 mm 2 m/S 762 mmHg 54%
    16:00 +21°C° 0 mm 2 m/S 762 mmHg 61%
    17:00 +20°C° 0 mm 2 m/S 762 mmHg 68%
    18:00 +20°C° 0 mm 1 m/S 762 mmHg 71%
    19:00 +19°C° 0 mm 1 m/S 763 mmHg 73%
    20:00 +18°C° 0 mm 1 m/S 763 mmHg 76%
    21:00 +18°C° 0 mm 1 m/S 763 mmHg 78%
    22:00 +15°C° 0 mm 0 m/S 763 mmHg 80%
    23:00 +15°C° 0 mm 0 m/S 763 mmHg 82%

    18 Oktober, Freitag

    Zeit Temperatur Niederschläge Wind Luftdruck Luftfeuchtigkeit
    00:00 +16°C° 0 mm 1 m/S 763 mmHg 81%
    01:00 +16°C° 0 mm 1 m/S 763 mmHg 80%
    02:00 +16°C° 0 mm 2 m/S 763 mmHg 79%
    03:00 +15°C° 0 mm 2 m/S 763 mmHg 76%
    04:00 +15°C° 0 mm 1 m/S 763 mmHg 73%
    05:00 +15°C° 0 mm 1 m/S 763 mmHg 71%
    06:00 +16°C° 0 mm 1 m/S 763 mmHg 67%
    07:00 +18°C° 0 mm 1 m/S 763 mmHg 63%
    08:00 +19°C° 0 mm 1 m/S 763 mmHg 59%
    09:00 +20°C° 0 mm 1 m/S 764 mmHg 53%
    10:00 +22°C° 0 mm 1 m/S 764 mmHg 47%
    11:00 +24°C° 0 mm 1 m/S 764 mmHg 41%
    12:00 +24°C° 0 mm 2 m/S 763 mmHg 40%
    13:00 +25°C° 0 mm 2 m/S 763 mmHg 40%
    14:00 +25°C° 0 mm 2 m/S 763 mmHg 39%
    15:00 +24°C° 0 mm 2 m/S 763 mmHg 47%
    16:00 +21°C° 0 mm 2 m/S 762 mmHg 55%
    17:00 +20°C° 0 mm 2 m/S 762 mmHg 63%
    18:00 +19°C° 0 mm 2 m/S 762 mmHg 69%
    19:00 +18°C° 0 mm 2 m/S 762 mmHg 76%
    20:00 +16°C° 0 mm 2 m/S 762 mmHg 82%
    21:00 +16°C° 0 mm 2 m/S 763 mmHg 84%
    22:00 +16°C° 0 mm 2 m/S 763 mmHg 87%
    23:00 +16°C° 0 mm 2 m/S 763 mmHg 89%

    19 Oktober, Samstag

    Zeit Temperatur Niederschläge Wind Luftdruck Luftfeuchtigkeit
    00:00 +15°C° 0 mm 2 m/S 763 mmHg 90%
    01:00 +15°C° 0 mm 2 m/S 762 mmHg 91%
    02:00 +15°C° 0 mm 2 m/S 762 mmHg 91%
    03:00 +14°C° 0 mm 2 m/S 762 mmHg 91%
    04:00 +14°C° 0 mm 2 m/S 762 mmHg 90%
    05:00 +14°C° 0 mm 1 m/S 762 mmHg 90%
    06:00 +15°C° 0 mm 2 m/S 763 mmHg 86%
    07:00 +16°C° 0 mm 2 m/S 763 mmHg 83%
    08:00 +16°C° 0 mm 2 m/S 763 mmHg 79%
    09:00 +18°C° 0 mm 2 m/S 763 mmHg 71%
    10:00 +20°C° 0 mm 2 m/S 763 mmHg 64%
    11:00 +21°C° 0 mm 2 m/S 763 mmHg 56%
    12:00 +23°C° 0 mm 2 m/S 763 mmHg 54%
    13:00 +23°C° 0 mm 2 m/S 762 mmHg 52%
    14:00 +24°C° 0 mm 3 m/S 762 mmHg 50%
    15:00 +22°C° 0 mm 3 m/S 762 mmHg 58%
    16:00 +20°C° 0 mm 3 m/S 762 mmHg 67%
    17:00 +19°C° 0 mm 3 m/S 762 mmHg 76%
    18:00 +18°C° 0 mm 2 m/S 762 mmHg 81%
    19:00 +17°C° 0 mm 2 m/S 762 mmHg 86%
    20:00 +16°C° 0 mm 2 m/S 762 mmHg 91%
    21:00 +16°C° 0 mm 2 m/S 763 mmHg 92%
    22:00 +15°C° 0 mm 1 m/S 763 mmHg 92%
    23:00 +15°C° 0 mm 1 m/S 763 mmHg 93%
    Mehr zeigen